sat.trackr.live / text

‹ back to catalog

STARLINK-30084

NORAD 56825 · 2023-079C

PAYLOAD ACTIVE UNKNOWN

§ Identity

Operator
Country
US
Launch date
2023-06-04
Launch site
AFETR
Launch vehicle
Mass (kg)
RCS (m²)

Purposes: comms

External: N2YO · Heavens-Above · Gunter

§ Orbital elements

Epoch: 2026-05-25T01:37:15.228768Z

Period
94.27 min
Inclination
43.0040°
Eccentricity
0.0001273
Mean motion
15.27592473 rev/d
Perigee alt
482.1 km
Apogee alt
483.9 km
Semi-major
6,861.1 km
B*
-5.9846e-5
RAAN
35.3410°
Arg perigee
273.8621°
Mean anomaly
86.2085°
Rev number
16,457

§ Raw data

STARLINK-300841 56825U 23079C   26145.06753737 -.00001909  00000+0 -59846-4 0  99992 56825  43.0040  35.3410 0001273 273.8621  86.2085 15.27592473164574

JSON: /api/v1/satellites/56825 · /tle

For live sub-satellite position, see the globe view (requires WebGL).

§ Visibility from observer

Set your observer location to see the next 7 days of passes ≥ 10°. The values pass through the URL so the page stays shareable.

No JS? Fill the form by hand. The geolocation button needs JavaScript.